Home   Weather   Tyler   Past weeks

Flag for USA Past Weather in Tyler, Texas, USA — Yesterday and Last 2 Weeks

Now
52 °F

Sunny.


Feels Like: 52 °F
Forecast: 46 / 77 °F
Wind: No wind

Location: Tyler Pounds Field

Current Time: Apr 24, 2017 at 8:36:35 am

Latest Report: Apr 24, 2017 at 7:53 am


Visibility: 10 mi

Pressure: 29.97 "Hg

Humidity: 89%

Dew Point: 49 °F

Location of TylerLocation

Past Weather in Tyler — Graph

°F

Tyler Temperature Yesterday

Maximum temperature yesterday: 72 °F (at 4:53 pm)
Minimum temperature yesterday: 45 °F (at 5:53 am)
Average temperature yesterday: 58 °F

High & Low Weather Summary for the Past Weeks

 TemperatureHumidityPressure
High84 °F (Apr 21, 2:53 pm)100% (Apr 19, 3:22 am)30.12 "Hg (Apr 19, 3:22 am)
Low45 °F (Apr 23, 5:53 am)33% (Apr 23, 4:53 pm)29.73 "Hg (Apr 21, 7:53 pm)
Average66 °F80%29.98 "Hg
* Reported Apr 19 1:53 am — Apr 24 6:53 am, Tyler, Weather by CustomWeather, © 2017

Note: Actual official high and low records may vary slightly from our data, if they occured in-between our weather recording intervals... More about our weather records

Advertising

Tyler Weather History for the Previous 24 Hours

Scroll right to see more
 ConditionsComfort  
Time TempWeatherWind HumidityBarometerVisibility
6:53 am
Mon, Apr 24
47 °FSunny.No wind93%29.96 "Hg10 mi
5:53 am46 °FClear.No wind93%29.95 "Hg10 mi
4:53 am47 °FClear.No wind97%29.95 "Hg10 mi
3:53 am46 °FClear.3 mph96%29.95 "Hg10 mi
2:53 am50 °FClear.No wind89%29.95 "Hg10 mi
1:53 am51 °FClear.No wind86%29.95 "Hg10 mi
12:53 am52 °FClear.No wind86%29.96 "Hg10 mi
11:53 pm
Sun, Apr 23
53 °FClear.3 mph83%29.97 "Hg10 mi
10:53 pm54 °FClear.No wind83%29.98 "Hg10 mi
9:53 pm56 °FClear.No wind75%29.99 "Hg10 mi
8:53 pm60 °FClear.No wind65%29.99 "Hg10 mi
7:53 pm66 °FSunny.5 mph45%29.99 "Hg10 mi
6:53 pm69 °FSunny.7 mph41%29.99 "Hg10 mi
5:53 pm71 °FSunny.10 mph36%29.99 "Hg10 mi
4:53 pm72 °FSunny.12 mph33%30.00 "Hg10 mi
3:53 pm71 °FSunny.13 mph34%30.01 "Hg10 mi
2:53 pm70 °FSunny.13 mph35%30.03 "Hg10 mi
1:53 pm69 °FSunny.14 mph38%30.05 "Hg10 mi
12:53 pm66 °FSunny.12 mph42%30.08 "Hg10 mi
11:53 am65 °FSunny.15 mph44%30.10 "Hg10 mi
10:53 am62 °FSunny.15 mph50%30.11 "Hg10 mi
9:53 am59 °FSunny.10 mph56%30.11 "Hg10 mi
8:53 am54 °FSunny.10 mph74%30.12 "Hg10 mi
Weather by CustomWeather, © 2017

See weather overviewHow to use our weather pages